Back to catalog

ATLAS 5 CENTAUR DEB

AliveHEO
NORAD 53516·DEBRIS·🇺🇸 United States

Launched Sep 17, 2014 from Cape Canaveral Space Force Station

Loading…

Next Passes (next 24 hours)

TLE

AgingSource: Space-Track

Epoch: Aug 30, 2026, 22:39 UTC

1 53516U 14055DP  26242.94408669 -.00000045  00000-0  00000-0 0  9997
2 53516  19.8202 148.9854 4737334 153.5563 241.3496  1.82544296 27449

Track ATLAS 5 CENTAUR DEB in real time with AllMySat

Download on the App Store